Погода в Бурже

Франция     47°05′04″N   2°23′22″E
темп.,
°C
ветер,
м/с
пор.,
м/с
влажн.,
%
обл.,
%
осадки,
мм/ч
давл.,
гПа
погр.,
м
15 мая, сб
сб1523:00+8зюз51292100 0.4 1013359
02:00+7юз3995100 0.4 1013275
05:00+7ююз5994100 0.6 1011478
08:00+7ю61295100 1.2 1009649
11:00+11юз71293100 0.2 1007773
14:00+12зюз91390100 1.5 10081196
17:00+14зюз7117327 0.6 10071416
20:00+13зюз6117612 0.8 1008885
16 мая, вс
вс1623:00+9юз4119286 0.1 1010309
02:00+8ююз399848 0.1 1010242
05:00+10ююз3898100 0.3 1007323
08:00+10юз2799100 1.9 1007437
11:00+13зюз71090100 1.4 1007955
14:00+13зюз81391100 3.3 10071222
17:00+16зюз913685 0.9 10062058
20:00+13зюз814745 1.4 10071184
17 мая, пн
пн1723:00+10зюз815802 0.2 1010849
02:00+10зюз91480100 0.2 10111018
05:00+10зюз81380100 0.2 10111156
08:00+10зюз81389100 0.5 10121166
11:00+12зюз91480100 0.2 10131543
14:00+13зюз8128081 0.8 10141431
17:00+14зюз8137941 1.2 10141665
20:00+12зюз8138314 2.3 1015824
18 мая, вт
вт1823:00+9зюз715900 0.3 1017568
02:00+8зюз7149564 0.3 1018633
05:00+8з71186100 0.1 1019866
08:00+9зюз61084100 0.1 1021985
11:00+10з81187100 0.5 1022904
14:00+12зсз6108570 1.5 10231248
17:00+15з696295 0.4 10221778
20:00+12з5108824 1.6 1023541
19 мая, ср
ср1923:00+8юз48946 0.3 1025141
02:00+8зюз51296100 0.6 1025367
05:00+8зюз4119873 0.1 1024380
08:00+8з5893100 0.3 1025553
11:00+10з4789100 0.3 1026797
14:00+12зсз457699 0.3 1026919
17:00+16юз245891 0.1 10251454
20:00+14ююз347843 0.3 1024115